Regional Weather Roundup
Issued by NWS New Orleans/Baton Rouge, LA

Home | Current Version | Previous Version | Graphics & Text | Print | Product List | Glossary On
Versions: 1 2 3 4 5 6 7 8 9 10 11 12 13 14 15 16 17 18 19 20 21 22 23 24 25 26 27 28 29 30 31 32 33 34 35 36 37 38 39 40 41 42 43 44 45 46 47 48 49 50
572
ASUS44 KLIX 221210
RWRLIX
NEW ORLEANS REGIONAL WEATHER ROUNDUP
NATIONAL WEATHER SERVICE NEW ORLEANS LA
700 AM CDT FRI AUG 22 2014

NOTE: "FAIR" INDICATES FEW OR NO CLOUDS BELOW 12,000 FEET WITH NO
      SIGNIFICANT WEATHER AND/OR OBSTRUCTIONS TO VISIBILITY.
      SKY/WX - SKY CONDITION AND SIGNIFICANT WEATHER.
      TMP - AIR TEMPERATURE.     DP    - DEWPOINT TEMPERATURE.
      RH  - RELATIVE HUMIDITY.   PRES  - PRESSURE.
      HI  - HEAT INDEX.          WCI   - WIND CHILL INDEX.

*  THESE STATIONS ARE NOT NWS OR FAA STATIONS AND ARE NOT UNDER
   NWS QUALITY CONTROL.

LAZ038-040-048-061>063-065>067-069-221300-
SOUTHEAST LOUISIANA

CITY           SKY/WX    TMP DP  RH WIND       PRES   REMARKS
N.O. AUDUBON     N/A     76  75  99 MISG        N/A
6HR MIN TEMP:  75; 6HR MAX TEMP:  79;

N.O. INTL ARPT MOCLDY    76  73  91 CALM      30.11R
6HR MIN TEMP:  75; 6HR MAX TEMP:  78;

N.O. LAKEFRONT CLEAR     81  76  84 N5        30.11R
6HR MIN TEMP:  79; 6HR MAX TEMP:  82;

N.O. DOWNTOWN*   N/A     81  72  74 CALM      30.11S
6HR MIN TEMP:  79; 6HR MAX TEMP:  81;

SLIDELL        CLEAR     73  70  90 CALM      30.10R
6HR MIN TEMP:  73; 6HR MAX TEMP:  78;

BATON ROUGE    MOCLDY    74  73  97 CALM      30.11R FOG
6HR MIN TEMP:  74; 6HR MAX TEMP:  75; 6HR PCP: TRACE;

BOOTHVILLE     CLEAR     82  78  88 NW5       30.11R
6HR MIN TEMP:  80; 6HR MAX TEMP:  82;

BELLE CHASSE   MOCLDY    73  70  90 CALM      30.10R
6HR MIN TEMP:  73; 6HR MAX TEMP:  76;

BOGALUSA*        N/A     74  70  88 CALM      30.12R
6HR MIN TEMP:  73; 6HR MAX TEMP:  78;

GALLIANO*      NOT AVBL
NEW ROADS*       N/A     72  72  98 CALM      30.10S FOG
6HR MIN TEMP:  71; 6HR MAX TEMP:  74;

GONZALES*        N/A     74  74  99 CALM      30.11R
6HR MIN TEMP:  73; 6HR MAX TEMP:  75;

HAMMOND*       PTCLDY    73  70  88 CALM      30.13R
HOUMA*         PTCLDY    73  70  88 CALM      30.11R
PORT FOURCHON* PTSUNNY   84  79  84 N5        30.12R HX  96

$$

MSZ070-080>082-221300-
SOUTHERN MISSISSIPPI

CITY           SKY/WX    TMP DP  RH WIND       PRES   REMARKS
MCCOMB         PTCLDY    73  71  93 CALM      30.12R
6HR MIN TEMP:  72; 6HR MAX TEMP:  76;

GULFPORT       PTCLDY    76  74  93 NW3       30.10R
6HR MIN TEMP:  76; 6HR MAX TEMP:  81;

BILOXI         CLEAR     78  74  86 VRB2      30.10R
6HR MIN TEMP:  78; 6HR MAX TEMP:  81;

PASCAGOULA     CLEAR     74  73  97 CALM      30.10R
6HR MIN TEMP:  73; 6HR MAX TEMP:  78;

STENNIS ARPT*  CLEAR    N/A N/A N/A CALM      30.11

$$

COASTAL OBSERVATIONS
LAKE AND NEARSHORE STATIONS

STATION/POSITION TIME  TEMP    WIND        PRES    WAVE
                       AIR SEA DIR/SP/G            HT/PER
                 (UTC) (F)     (DEG/KT/KT) (MB)    (FT/S)
PASCAGOULA       1200   79     340/  4/  4 1018.6
WAVELAND YACHT   1200   77     300/  4/  5 1018.8
GRAND ISLE       1200   84 88  360/  5/  7 1020.1
SOUTHWEST PASS   1200   84 87  310/  5/  6 1019.7
NEW CANAL        1200   82 84  320/  2/  3 1019.8
SHELL BEACH      1200   82 82  300/  5/  6 1019.2

OFFSHORE STATIONS

STATION/POSITION TIME  TEMP    WIND        PRES    WAVE
                       AIR SEA DIR/SP/G            HT/PER
                 (UTC) (F)     (DEG/KT/KT) (MB)    (FT/S)
64 S DAUPHIN ISL 1143   85 88  320/  8/ 10 1019.3

$$




USA.gov is the U.S. government's official web portal to all federal, state and local government web resources and services.